Flag for Switzerland Weather past 2 weeks in Yverdon-les-Bains, Vaud, Switzerland

Now
65 °F

Mild.


Feels Like: 65 °F
Forecast: 52 / 64 °F
Wind: 7 mph from Southwest

Location: Payerne

Current Time: Apr 25, 2015 at 6:03:02 PM

Latest Report: Apr 25, 2015 at 5:00 PM


Visibility: N/A

Pressure: 29.83 "Hg

Humidity: 49%

Dew point: 46 °F

Location of Yverdon-les-BainsLocation

Historic Weather in Yverdon-les-Bains — Graph

°F

Yverdon-les-Bains temperature yesterday

Maximum temperature yesterday: 72 °F (at 4:00 PM)
Minimum temperature yesterday: 40 °F (at 6:00 AM)
Average temperature yesterday: 56 °F

Past Weeks' High & Low Weather Summary

 TemperatureHumidityPressure
High75 °F (Apr 15, 5:00 PM)97% (Apr 18, 3:00 AM)30.50 "Hg (Apr 18, 3:00 AM)
Low33 °F (Apr 19, 7:00 AM)21% (Apr 24, 4:00 PM)29.84 "Hg (Apr 24, 6:00 PM)
Average54 °F62%30.16 "Hg
* Reported Apr 10 4:00 PM — Apr 25 4:00 PM, Yverdon-les-Bains, Weather by CustomWeather, © 2015

Note: Actual official high and low records may vary slightly from our data, if they occured in-between our weather recording intervals... More about our weather records

Advertising

Yverdon-les-Bains weather history for previous 24 hours

 ConditionsComfort  
Time TempWeatherWind HumidityBarometerVisibility
4:00 PM
Sat, Apr 25
64 °FMild.8 mph50%29.85 "HgN/A
3:00 PM62 °FRefreshingly cool.7 mph55%29.88 "HgN/A
2:00 PM61 °FLight rain. Overcast.14 mph54%29.89 "Hg12 mi
1:00 PM64 °FMild.16 mph46%29.88 "HgN/A
12:00 PM63 °FMild.12 mph52%29.89 "HgN/A
11:00 AM61 °FOvercast.9 mph56%29.90 "Hg12 mi
10:00 AM58 °FCool.3 mph67%29.90 "HgN/A
9:00 AM56 °FCool.2 mph72%29.91 "HgN/A
8:00 AM53 °FLight rain. Overcast.1 mph71%29.92 "Hg12 mi
7:00 AM51 °FCool.1 mph77%29.91 "HgN/A
6:00 AM51 °FCool.6 mph69%29.89 "HgN/A
5:00 AM51 °FCool.5 mph67%29.92 "HgN/A
4:00 AM49 °FCool.No wind73%29.92 "HgN/A
3:00 AM47 °FCool.3 mph77%29.92 "HgN/A
2:00 AM49 °FClear.7 mph71%29.93 "Hg16 mi
1:00 AM48 °FCool.3 mph72%29.94 "HgN/A
12:00 AM50 °FCool.6 mph67%29.93 "HgN/A
11:00 PM
Fri, Apr 24
53 °FClear.2 mph66%29.92 "Hg16 mi
10:00 PM54 °FCool.1 mph63%29.91 "HgN/A
9:00 PM59 °FRefreshingly cool.2 mph54%29.88 "HgN/A
8:00 PM68 °FPassing clouds.3 mph32%29.84 "Hg19 mi
7:00 PM69 °FMild.2 mph29%29.84 "HgN/A
6:00 PM71 °FMild.5 mph26%29.84 "HgN/A
Weather by CustomWeather, © 2015

See weather overviewHow to use our weather pages